Laurent Verva

Laurent Verva

Statistiques 2026

  • Courses courues : 42
  • Nb de victoires : -
  • Nb de places : 1
  • Écart gagnant : 143
  • Réussite à la gagne : -
  • Réussite à la place : 2%
Musique : 0a 8a 4a 6a 6a 0a 5a 5a Da 2a 9a 6a 5a Da 6a 0a 7a 4a
DateRangCatégorieAlloc.Dist.HippodromeChevalRed. KmSpé.
11/06/18 6 Trot 13 000€ 2 825m Le Croise Laroche Flamme Luxor 1'19"4 Attelé
11/06/18 9 Trot 18 000€ 2 850m Le Croise Laroche Bilingue d'Alci 1'17"0 Attelé
11/06/18 6 Trot 15 000€ 2 825m Le Croise Laroche Flying Jet 1'19"1 Attelé
10/06/18 D Trot 30 000€ 2 650m Saint Omer Verso de Made Attelé
10/06/18 9 Trot 13 000€ 2 650m Saint Omer Elite d'Alci 1'22"4 Attelé
10/06/18 D Trot 13 000€ 2 625m Saint Omer Eliza Dream Attelé
10/06/18 1 Trot 10 000€ 2 625m Saint Omer Felinara 1'20"7 Attelé
10/06/18 3 Trot 10 000€ 2 625m Saint Omer Fire Bird 1'19"2 Attelé
09/06/18 1 Trot 16 000€ 2 575m Reims Diego du Houlet 1'15"2 Attelé
09/06/18 5 Trot 13 000€ 2 600m Reims Farca Sly 1'18"5 Attelé
09/06/18 D Trot 16 000€ 2 600m Reims Elixir Neslois Attelé
09/06/18 0 Trot 26 000€ 2 575m Reims Valerko Sprint Attelé
08/06/18 5 Trot 30 000€ 2 850m Mauquenchy Cannelle d'As 1'17"0 Attelé
08/06/18 2 Trot 20 000€ 2 850m Mauquenchy Dauphine d'Alci 1'16"7 Attelé
08/06/18 3 Trot 20 000€ 2 875m Mauquenchy Divin de Bougy 1'16"0 Attelé
08/06/18 8 Trot 21 000€ 2 850m Mauquenchy Elliot d'Alci 1'17"3 Attelé
08/06/18 D Trot 21 000€ 2 850m Mauquenchy Elisee du Pont Attelé
04/06/18 5 Trot 18 000€ 2 200m Caen Etoile Dubonheur 1'15"9 Attelé
03/06/18 5 Trot 15 000€ 3 150m Abbeville Diane d'Idef TNC Attelé
03/06/18 2 Trot 18 000€ 3 175m Abbeville Altesse d'Ardennes Attelé
03/06/18 2 Trot 13 000€ 3 175m Abbeville Eole Chatho Attelé
02/06/18 5 Trot 23 000€ 2 400m Amiens Buxus Calendes 1'14"0 Attelé
02/06/18 4 Trot 17 000€ 2 400m Amiens Charly d'Ommeel 1'15"3 Attelé
30/05/18 6 Trot 19 000€ 2 700m La Capelle Elokai 1'15"4 Attelé
30/05/18 D Trot 20 000€ 2 700m La Capelle Esther du Ganep Attelé
29/05/18 8 Trot 22 000€ 2 200m Caen Bilingue d'Alci 1'13"4 Attelé
28/05/18 0 Trot 25 000€ 2 825m Le Croise Laroche Borneo de Bouteau Attelé
27/05/18 3 Trot 20 000€ 2 600m Reims Ethano de Bouteau 1'16"5 Attelé
27/05/18 4 Trot 20 000€ 2 550m Reims Dryade des Salines 1'16"2 Attelé
27/05/18 7 Trot 20 000€ 2 600m Reims Etoile Dubonheur 1'16"3 Attelé
23/05/18 4 Trot 22 000€ 2 700m Le Croise Laroche Divin de Bougy 1'13"5 Attelé lire

Après avoir attendu, a progressé dans le tournant final et a bien fini.

23/05/18 4 Trot 22 000€ 2 700m Le Croise Laroche Fayette Tilly 1'16"6 Attelé lire

Vite aux premiers rangs, a très bien tenu sa partie jusqu'au bout.

21/05/18 0 Trot 23 000€ 2 925m Arras Au Temps Dubonheur Attelé
21/05/18 2 Trot 13 000€ 2 900m Arras Eclipse Magique Attelé
21/05/18 4 Trot 13 000€ 2 900m Arras Electric Wood Attelé
21/05/18 5 Trot 12 000€ 2 900m Arras Farca Sly Attelé
20/05/18 1 Trot 13 000€ 2 850m Laon Easy de Navary 1'17"5 Attelé
20/05/18 4 Trot 13 000€ 2 850m Laon Eliott d'Agenville 1'19"0 Attelé
20/05/18 7 Trot 32 000€ 2 850m Laon Aristo de Chanjac 1'17"0 Attelé
20/05/18 0 Trot 18 000€ 2 650m Laon Cannelle d'As Attelé
18/05/18 D Trot 15 000€ 2 400m Amiens Fiona la Jarrie Attelé
18/05/18 3 Trot 14 000€ 2 400m Amiens Eole Chatho 1'17"1 Attelé
18/05/18 9 Trot 16 000€ 2 400m Amiens Daisy de la Folie 1'16"8 Attelé
18/05/18 6 Trot 16 000€ 2 400m Amiens Duraton du Saptel 1'15"9 Attelé
18/05/18 6 Trot 16 000€ 2 400m Amiens Bailey de Watou 1'15"5 Attelé
17/05/18 5 Trot 21 000€ 2 825m Chartres Bilingue d'Alci 1'17"6 Attelé
13/05/18 6 Trot 16 000€ 2 600m Le Touquet Cresus du Cyd Attelé
13/05/18 7 Trot 25 000€ 2 600m Le Touquet Cyrus d'Alci Attelé
13/05/18 0 Trot 15 000€ 2 625m Le Touquet Dulcinee d'Arbaz Attelé
13/05/18 1 Trot 13 000€ 2 600m Le Touquet Eros In Love Attelé